This is the latest recevied weather packets stored in our database for station/object WZ9ZZZ-1. If no packets are shown the sender has not sent any weather packets the latest 10 day(s).
| Time | Temp. | Humidity | Pressure | Rain* | Wind** | Luminosity | Snow |
|---|---|---|---|---|---|---|---|
| 1777560850 | 27.22° C | 82% | 1014 hPa | 0 mm | - | 259 W/m² | - |
| 1777560549 | 27.22° C | 81% | 1014.3 hPa | 0 mm | - | 216 W/m² | - |
| 1777560246 | 27.22° C | 81% | 1014.1 hPa | 0 mm | - | 182 W/m² | - |
| 1777559943 | 27.22° C | 81% | 1014.2 hPa | 0 mm | - | 208 W/m² | - |
| 1777559637 | 27.22° C | 82% | 1014.3 hPa | 0 mm | - | 200 W/m² | - |
| 1777559336 | 26.67° C | 83% | 1013.9 hPa | 0 mm | - | 278 W/m² | - |
| 1777559031 | 26.67° C | 85% | 1014.1 hPa | 0 mm | - | 306 W/m² | - |
| 1777558727 | 26.11° C | 86% | 1014.1 hPa | 0 mm | - | 219 W/m² | - |
| 1777558423 | 26.11° C | 87% | 1014.1 hPa | 0 mm | - | 157 W/m² | - |
| 1777558119 | 26.11° C | 88% | 1014.1 hPa | 0 mm | - | 166 W/m² | - |
| 1777557816 | 25.56° C | 88% | 1013.9 hPa | 0 mm | - | 186 W/m² | - |
| 1777557513 | 25.56° C | 89% | 1013.9 hPa | 0 mm | - | 158 W/m² | - |
| 1777557209 | 25.56° C | 90% | 1013.6 hPa | 0 mm | - | 145 W/m² | - |
| 1777556905 | 25° C | 90% | 1013.9 hPa | 0 mm | - | 123 W/m² | - |
| 1777556601 | 25° C | 90% | 1013.9 hPa | 0 mm | - | 110 W/m² | - |
| 1777556295 | 25° C | 91% | 1014 hPa | 0 mm | - | 104 W/m² | - |
| 1777555991 | 25° C | 91% | 1014.1 hPa | 0 mm | - | 101 W/m² | - |
| 1777555686 | 25° C | 91% | 1014.7 hPa | 0 mm | - | 99 W/m² | - |
| 1777555383 | 25° C | 91% | 1014.4 hPa | 0 mm | - | 96 W/m² | - |
| 1777555079 | 25° C | 91% | 1014.1 hPa | 0 mm | - | 85 W/m² | - |
| 1777554777 | 25° C | 92% | 1013.4 hPa | 0 mm | - | 84 W/m² | - |
| 1777554474 | 24.44° C | 92% | 1012.9 hPa | 0 mm | - | 92 W/m² | - |
| 1777554171 | 24.44° C | 92% | 1013.4 hPa | 0 mm | - | 96 W/m² | - |
| 1777553868 | 24.44° C | 93% | 1013.2 hPa | 0 mm | - | 93 W/m² | - |
| 1777553563 | 23.89° C | 93% | 1013.1 hPa | 0 mm | - | 75 W/m² | - |
* Rain latest hour (hover to see other rain measurements)
** Current wind speed in m/s (hover to see current wind gust speed)